Radiation Dose at Monitoring Post of Fukushima Daini Nuclear Power Station
Date,Time,MP-1(microSv/h),MP-2(microSv/h),MP-3(microSv/h),MP-4(microSv/h),MP-5(microSv/h),MP-6(microSv/h),MP-7(microSv/h),Wind Direction,Wind Velocity(m/s),Rain
2016/10/06,00:00,0.388,0.238,0.411,0.378,0.365,0.194,0.167,south-southwest,14.0,No
2016/10/06,00:10,0.392,0.239,0.413,0.380,0.366,0.193,0.168,south,12.1,Yes
2016/10/06,00:20,0.391,0.238,0.415,0.381,0.361,0.194,0.166,south-southwest,14.0,Yes
2016/10/06,00:30,0.388,0.237,0.411,0.377,0.365,0.194,0.167,south-southwest,15.3,Yes
2016/10/06,00:40,0.390,0.239,0.413,0.378,0.365,0.193,0.165,south-southwest,15.1,No
2016/10/06,00:50,0.393,0.238,0.415,0.382,0.363,0.194,0.167,south-southwest,14.5,Yes
2016/10/06,01:00,0.388,0.239,0.411,0.377,0.364,0.194,0.167,south-southwest,14.2,No
2016/10/06,01:10,0.391,0.238,0.413,0.382,0.364,0.193,0.166,south-southwest,13.3,No
2016/10/06,01:20,0.394,0.237,0.415,0.381,0.361,0.194,0.167,south-southwest,9.5,Yes
2016/10/06,01:30,0.387,0.237,0.409,0.376,0.362,0.194,0.166,southwest,8.4,Yes
2016/10/06,01:40,0.382,0.236,0.401,0.371,0.361,0.190,0.162,west-southwest,2.5,Yes
2016/10/06,01:50,0.384,0.234,0.404,0.373,0.358,0.191,0.164,southwest,3.3,Yes
2016/10/06,02:00,0.381,0.236,0.402,0.370,0.361,0.192,0.164,west-southwest,3.9,Yes
2016/10/06,02:10,0.382,0.236,0.402,0.373,0.363,0.191,0.162,west-southwest,5.3,No
2016/10/06,02:20,0.385,0.234,0.403,0.371,0.358,0.191,0.164,west-southwest,4.5,No
2016/10/06,02:30,0.383,0.236,0.401,0.369,0.362,0.191,0.164,west-southwest,5.6,No
2016/10/06,02:40,0.384,0.235,0.403,0.372,0.361,0.189,0.162,west-southwest,5.6,No
2016/10/06,02:50,0.383,0.233,0.404,0.370,0.357,0.190,0.163,west-southwest,5.3,No
2016/10/06,03:00,0.381,0.235,0.400,0.369,0.362,0.189,0.163,west,6.6,No
2016/10/06,03:10,0.383,0.233,0.404,0.371,0.360,0.190,0.162,west,7.8,No
2016/10/06,03:20,0.382,0.234,0.402,0.370,0.359,0.189,0.162,west,9.7,No
2016/10/06,03:30,0.380,0.234,0.399,0.370,0.362,0.189,0.162,west-southwest,8.7,No
2016/10/06,03:40,0.384,0.234,0.403,0.371,0.359,0.191,0.162,west,7.9,No
2016/10/06,03:50,0.382,0.235,0.401,0.370,0.360,0.189,0.162,west-northwest,9.2,No
2016/10/06,04:00,0.382,0.234,0.402,0.372,0.360,0.189,0.162,west-northwest,7.4,No
2016/10/06,04:10,0.385,0.233,0.405,0.369,0.359,0.190,0.162,west-northwest,8.3,No
2016/10/06,04:20,0.382,0.235,0.401,0.371,0.363,0.189,0.161,west-northwest,9.3,No
2016/10/06,04:30,0.384,0.233,0.405,0.371,0.358,0.190,0.162,northwest,8.4,No
2016/10/06,04:40,0.385,0.234,0.402,0.369,0.361,0.190,0.161,northwest,11.3,No
2016/10/06,04:50,0.383,0.235,0.401,0.372,0.362,0.189,0.161,northwest,8.7,No
2016/10/06,05:00,0.384,0.232,0.404,0.368,0.358,0.189,0.161,north-northeast,2.2,No
2016/10/06,05:10,0.384,0.234,0.401,0.371,0.361,0.189,0.161,north-northeast,1.0,No
2016/10/06,05:20,0.383,0.235,0.402,0.371,0.360,0.190,0.162,north,3.1,No
2016/10/06,05:30,0.386,0.234,0.404,0.369,0.357,0.189,0.162,northwest,3.7,No
2016/10/06,05:40,0.385,0.234,0.401,0.373,0.362,0.190,0.161,west-northwest,3.1,No
2016/10/06,05:50,0.384,0.233,0.405,0.368,0.358,0.191,0.162,west-northwest,4.2,No
2016/10/06,06:00,0.385,0.235,0.402,0.370,0.361,0.190,0.161,west-northwest,4.6,No
2016/10/06,06:10,0.382,0.235,0.402,0.371,0.361,0.190,0.162,west,3.1,No
2016/10/06,06:20,0.386,0.233,0.403,0.369,0.357,0.190,0.161,west-northwest,3.7,No
2016/10/06,06:30,0.383,0.235,0.402,0.372,0.362,0.191,0.161,northwest,3.2,No
2016/10/06,06:40,0.383,0.233,0.406,0.369,0.358,0.190,0.162,northwest,3.5,No
2016/10/06,06:50,0.385,0.235,0.403,0.371,0.359,0.191,0.161,north-northwest,3.8,No
2016/10/06,07:00,0.383,0.234,0.401,0.371,0.361,0.190,0.161,north-northwest,3.9,No
2016/10/06,07:10,0.386,0.235,0.404,0.368,0.357,0.190,0.162,north-northwest,4.3,No
2016/10/06,07:20,0.384,0.234,0.401,0.373,0.360,0.191,0.161,north,3.6,No
2016/10/06,07:30,0.382,0.233,0.404,0.370,0.362,0.188,0.161,north,2.0,No
2016/10/06,07:40,0.386,0.234,0.404,0.368,0.357,0.190,0.161,north,2.8,No
2016/10/06,07:50,0.383,0.234,0.402,0.371,0.360,0.189,0.161,north,7.0,No
2016/10/06,08:00,0.383,0.232,0.404,0.372,0.361,0.189,0.162,north,5.5,No
2016/10/06,08:10,0.386,0.230,0.403,0.369,0.359,0.190,0.161,north-northwest,4.9,No
2016/10/06,08:20,0.384,0.233,0.401,0.368,0.357,0.191,0.161,north-northwest,4.4,No
2016/10/06,08:30,0.381,0.232,0.403,0.366,0.357,0.189,0.162,north-northeast,4.7,No
2016/10/06,08:40,0.381,0.233,0.406,0.367,0.359,0.190,0.162,north,5.6,No
2016/10/06,08:50,0.388,0.234,0.403,0.367,0.362,0.189,0.162,north,4.7,No
2016/10/06,09:00,0.388,0.234,0.401,0.368,0.361,0.190,0.161,north,6.0,No
2016/10/06,09:10,0.384,0.234,0.404,0.369,0.360,0.191,0.162,north,6.9,No
2016/10/06,09:20,0.385,0.235,0.406,0.370,0.358,0.191,0.163,north-northwest,6.5,No
2016/10/06,09:30,0.383,0.234,0.403,0.371,0.359,0.191,0.163,north,6.4,No
2016/10/06,09:40,0.381,0.234,0.401,0.371,0.357,0.193,0.163,north,4.4,No
2016/10/06,09:50,0.383,0.234,0.402,0.370,0.359,0.192,0.163,north,3.9,No
2016/10/06,10:00,0.383,0.233,0.406,0.369,0.357,0.190,0.163,north,3.6,No
2016/10/06,10:10,0.383,0.235,0.404,0.371,0.358,0.191,0.161,north,3.6,No
2016/10/06,10:20,0.387,0.232,0.402,0.370,0.362,0.192,0.162,north,4.1,No
2016/10/06,10:30,0.389,0.235,0.402,0.369,0.365,0.192,0.162,north,4.7,No
2016/10/06,10:40,0.387,0.236,0.407,0.368,0.362,0.191,0.162,north,3.9,No
2016/10/06,10:50,0.385,0.236,0.404,0.370,0.360,0.191,0.161,north,4.8,No
2016/10/06,11:00,0.384,0.234,0.402,0.375,0.359,0.190,0.162,north,5.9,No
2016/10/06,11:10,0.384,0.233,0.401,0.375,0.359,0.190,0.162,north,6.0,No
2016/10/06,11:20,0.388,0.234,0.407,0.371,0.357,0.191,0.162,north,6.2,No
2016/10/06,11:30,0.389,0.235,0.407,0.369,0.361,0.191,0.162,north,6.6,No
2016/10/06,11:40,0.386,0.235,0.404,0.370,0.363,0.192,0.162,north,6.7,No
2016/10/06,11:50,0.384,0.235,0.402,0.374,0.360,0.193,0.164,north,7.5,No
2016/10/06,12:00,0.388,0.234,0.406,0.373,0.360,0.192,0.162,north,6.6,No
2016/10/06,12:10,0.390,0.235,0.407,0.372,0.359,0.191,0.162,north,6.1,No
2016/10/06,12:20,0.386,0.235,0.402,0.371,0.363,0.191,0.161,north,5.8,No
2016/10/06,12:30,0.384,0.234,0.402,0.369,0.364,0.191,0.162,north,6.4,No
2016/10/06,12:40,0.388,0.232,0.402,0.370,0.360,0.191,0.162,north-northeast,6.3,No
2016/10/06,12:50,0.390,0.233,0.401,0.372,0.362,0.192,0.162,north,2.9,No
2016/10/06,13:00,0.388,0.233,0.402,0.370,0.361,0.192,0.163,north,3.8,No
2016/10/06,13:10,0.384,0.234,0.403,0.372,0.361,0.193,0.164,north,1.9,No
2016/10/06,13:20,0.383,0.234,0.402,0.373,0.362,0.192,0.164,west,3.9,No
2016/10/06,13:30,0.385,0.236,0.405,0.373,0.360,0.192,0.164,west-northwest,5.6,No
2016/10/06,13:40,0.385,0.237,0.405,0.374,0.361,0.193,0.164,west-northwest,4.4,No
2016/10/06,13:50,0.385,0.236,0.404,0.373,0.361,0.193,0.164,west-southwest,4.0,No
2016/10/06,14:00,0.385,0.235,0.405,0.374,0.362,0.192,0.164,west,4.9,No
2016/10/06,14:10,0.385,0.236,0.407,0.372,0.360,0.193,0.164,northwest,5.4,No
2016/10/06,14:20,0.391,0.236,0.405,0.373,0.361,0.193,0.163,northwest,5.0,No
2016/10/06,14:30,0.392,0.236,0.407,0.371,0.360,0.192,0.163,west,5.1,No
2016/10/06,14:40,0.389,0.234,0.404,0.371,0.361,0.193,0.163,west,8.1,No
2016/10/06,14:50,0.386,0.235,0.403,0.377,0.359,0.191,0.163,west-northwest,8.3,No
2016/10/06,15:00,0.387,0.234,0.409,0.374,0.361,0.192,0.163,west-northwest,4.8,No
2016/10/06,15:10,0.392,0.236,0.409,0.373,0.364,0.191,0.164,northwest,4.3,No
2016/10/06,15:20,0.391,0.235,0.405,0.376,0.364,0.191,0.164,west,4.2,No
2016/10/06,15:30,0.386,0.236,0.407,0.376,0.360,0.192,0.164,west-northwest,4.2,No
2016/10/06,15:40,0.391,0.237,0.411,0.372,0.362,0.192,0.165,northwest,5.6,No
2016/10/06,15:50,0.390,0.237,0.407,0.376,0.366,0.193,0.164,northwest,2.8,No
2016/10/06,16:00,0.388,0.234,0.406,0.375,0.364,0.192,0.163,northwest,4.0,No
2016/10/06,16:10,0.392,0.237,0.410,0.373,0.361,0.193,0.165,north-northwest,4.3,No
2016/10/06,16:20,0.390,0.237,0.408,0.375,0.363,0.193,0.165,northwest,5.5,No
2016/10/06,16:30,0.387,0.236,0.406,0.378,0.363,0.192,0.165,north-northwest,6.5,No
2016/10/06,16:40,0.389,0.237,0.410,0.374,0.361,0.193,0.164,north-northwest,6.4,No
2016/10/06,16:50,0.391,0.236,0.408,0.374,0.361,0.192,0.165,north-northwest,5.4,No
2016/10/06,17:00,0.387,0.236,0.407,0.376,0.365,0.192,0.163,north-northwest,6.2,No
2016/10/06,17:10,0.392,0.237,0.411,0.373,0.361,0.193,0.165,north-northwest,4.6,No
2016/10/06,17:20,0.390,0.235,0.406,0.377,0.364,0.192,0.164,north,6.4,No
2016/10/06,17:30,0.390,0.237,0.408,0.375,0.363,0.193,0.164,north,4.6,No
2016/10/06,17:40,0.391,0.237,0.409,0.376,0.363,0.192,0.164,north,5.3,No
2016/10/06,17:50,0.389,0.237,0.407,0.375,0.363,0.191,0.165,north,6.2,No
2016/10/06,18:00,0.392,0.238,0.410,0.375,0.362,0.194,0.165,north,4.8,No
2016/10/06,18:10,0.390,0.237,0.407,0.377,0.364,0.191,0.164,north,4.2,No
2016/10/06,18:20,0.389,0.237,0.409,0.373,0.362,0.193,0.165,north-northeast,3.1,No
2016/10/06,18:30,0.392,0.236,0.408,0.376,0.365,0.191,0.165,north-northwest,2.2,No
2016/10/06,18:40,0.389,0.237,0.409,0.374,0.361,0.194,0.164,north,2.2,No
2016/10/06,18:50,0.391,0.236,0.408,0.377,0.363,0.192,0.164,north,1.6,No
2016/10/06,19:00,0.389,0.238,0.408,0.373,0.362,0.193,0.166,north-northwest,1.9,No
2016/10/06,19:10,0.392,0.237,0.412,0.377,0.366,0.193,0.165,northwest,1.5,No
2016/10/06,19:20,0.390,0.238,0.407,0.375,0.363,0.193,0.165,northwest,2.3,No
2016/10/06,19:30,0.391,0.236,0.410,0.377,0.363,0.193,0.164,north,2.9,No
2016/10/06,19:40,0.391,0.238,0.409,0.376,0.364,0.194,0.166,north-northeast,2.0,No
2016/10/06,19:50,0.390,0.235,0.410,0.375,0.365,0.193,0.165,-,CALM,No
2016/10/06,20:00,0.389,0.237,0.407,0.376,0.362,0.194,0.164,east-northeast,0.8,No
2016/10/06,20:10,0.390,0.237,0.409,0.376,0.366,0.193,0.164,northeast,1.0,No
2016/10/06,20:20,0.392,0.237,0.409,0.375,0.363,0.193,0.165,north-northeast,2.3,No
2016/10/06,20:30,0.391,0.236,0.411,0.376,0.366,0.194,0.165,north,2.1,No
2016/10/06,20:40,0.391,0.237,0.408,0.376,0.363,0.194,0.165,west-southwest,1.2,No
2016/10/06,20:50,0.389,0.237,0.410,0.375,0.365,0.192,0.164,west-northwest,1.4,No
2016/10/06,21:00,0.392,0.237,0.408,0.375,0.361,0.193,0.164,-,CALM,No
2016/10/06,21:10,0.390,0.237,0.411,0.377,0.366,0.192,0.165,north-northeast,1.3,No
2016/10/06,21:20,0.390,0.237,0.408,0.375,0.363,0.193,0.165,north,2.8,No
2016/10/06,21:30,0.392,0.238,0.410,0.376,0.364,0.193,0.165,north,1.0,No
2016/10/06,21:40,0.391,0.236,0.408,0.375,0.363,0.193,0.164,north-northeast,2.5,No
2016/10/06,21:50,0.389,0.237,0.410,0.377,0.365,0.193,0.165,north-northeast,2.8,No
2016/10/06,22:00,0.391,0.236,0.406,0.377,0.364,0.194,0.165,north-northeast,1.9,No
2016/10/06,22:10,0.390,0.237,0.410,0.376,0.366,0.194,0.165,north-northeast,2.2,No
2016/10/06,22:20,0.392,0.236,0.408,0.376,0.363,0.194,0.165,north-northeast,2.8,No
2016/10/06,22:30,0.390,0.237,0.409,0.376,0.363,0.193,0.165,north-northeast,1.4,No
2016/10/06,22:40,0.390,0.236,0.408,0.375,0.365,0.193,0.165,north,2.5,No
2016/10/06,22:50,0.389,0.236,0.410,0.379,0.363,0.193,0.166,north-northeast,3.4,No
2016/10/06,23:00,0.389,0.237,0.408,0.375,0.367,0.194,0.165,north,2.4,No
2016/10/06,23:10,0.392,0.237,0.409,0.379,0.362,0.192,0.164,north-northeast,2.8,No
2016/10/06,23:20,0.390,0.237,0.410,0.375,0.367,0.193,0.165,north-northeast,1.6,No
2016/10/06,23:30,0.392,0.237,0.410,0.379,0.363,0.193,0.166,north-northeast,3.4,No
2016/10/06,23:40,0.388,0.237,0.409,0.374,0.364,0.193,0.165,north,5.0,No
2016/10/06,23:50,0.392,0.237,0.408,0.377,0.362,0.193,0.165,north,5.0,No
